Location: Fontevrault
(47.1823°N, 0.0493°E)
Time: 17:23:52
(UTC+00:00)

Cosmos 1725 Rocket - Pass Details

Date: 31 October 2021
Orbit: 961 x 991 km, 82.9° (Epoch: 27 November)

Event Time Altitude Azimuth Distance (km) Brightness Sun altitude
Rises 20:31:17 0° 224° (SW) 3,655 7.2 -38.5°
Reaches altitude 10° 20:34:13 10° 236° (SW) 2,708 6.6 -39.0°
Maximum altitude 20:39:22 27° 292° (WNW) 1,774 5.8 -39.8°
Drops below altitude 10° 20:44:31 10° 349° (N) 2,711 6.6 -40.5°
Sets 20:47:29 0° 2° (N) 3,660 7.3 -41.0°
